Overview Statistics Trail Chart Weather Telemetry Raw packets
 

This is the latest recevied weather packets stored in our database for station/object SV9TNF-52. If no packets are shown the sender has not sent any weather packets the latest 10 day(s).

<< 13 14 15 16 17 18 19 >>
Time Temp. Humidity Pressure Rain* Wind** Luminosity Snow
1788564147 22.78° C 66% 1020.7 hPa 0 mm 2.68 m/s, 211° - -
1788563847 23.33° C 66% 1020.7 hPa 0 mm 3.58 m/s, 182° - -
1788563547 23.33° C 66% 1020.7 hPa 0 mm 4.47 m/s, 200° - -
1788563247 22.78° C 66% 1020.7 hPa 0 mm 2.68 m/s, 244° - -
1788562946 22.78° C 66% 1020.7 hPa 0 mm 3.13 m/s, 233° - -
1788562647 22.78° C 66% 1020.7 hPa 0 mm 1.79 m/s, 227° - -
1788562346 22.78° C 66% 1020.7 hPa 0 mm 4.02 m/s, 240° - -
1788562046 22.78° C 66% 1020.7 hPa 0 mm 6.26 m/s, 247° - -
1788561747 22.78° C 66% 1020.7 hPa 0 mm 7.15 m/s, 208° - -
1788561446 22.78° C 66% 1020.7 hPa 0 mm 6.26 m/s, 219° - -
1788561146 22.78° C 66% 1021 hPa 0 mm 6.71 m/s, 206° - -
1788560846 22.78° C 66% 1021 hPa 0 mm 8.05 m/s, 305° - -
1788560546 22.78° C 66% 1021 hPa 0 mm 7.15 m/s, 202° - -
1788560263 22.78° C 66% 1021 hPa 0 mm 6.71 m/s, 195° - -
1788559946 22.78° C 66% 1021 hPa 0 mm 6.71 m/s, 180° - -
1788559645 22.78° C 65% 1021 hPa 0 mm 4.92 m/s, 180° - -
1788559346 22.78° C 65% 1021 hPa 0 mm 7.15 m/s, 200° - -
1788559045 22.78° C 64% 1021 hPa 0 mm 2.68 m/s, 238° - -
1788558745 22.78° C 64% 1021 hPa 0 mm 3.58 m/s, 240° - -
1788558445 22.78° C 64% 1021 hPa 0 mm 4.92 m/s, 229° - -
1788558145 22.78° C 64% 1021 hPa 0 mm 4.92 m/s, 89° - -
1788557845 22.78° C 64% 1021 hPa 0 mm 4.47 m/s, 196° - -
1788557545 22.78° C 64% 1021 hPa 0 mm 3.58 m/s, 235° - -
1788557245 22.78° C 64% 1021 hPa 0 mm 6.26 m/s, 220° - -
1788556945 22.78° C 64% 1021 hPa 0 mm 4.02 m/s, 104° - -

* Rain latest hour (hover to see other rain measurements)
** Current wind speed in m/s (hover to see current wind gust speed)